Flag for Canada Weather past 2 weeks in Wood Buffalo, Alberta, Canada

Now
71 °F

Mild.


Feels Like: 75 °F
Forecast: 35 / 82 °F
Wind: 10 mph from Northeast

Location: Fort McMurray CS

Current Time: Apr 28, 2015 at 12:54:43 PM

Latest Report: Apr 28, 2015 at 12:00 PM


Visibility: N/A

Pressure: 29.82 "Hg

Humidity: 20%

Dew point: 29 °F

Location of Wood BuffaloLocation

Historic Weather in Wood Buffalo — Graph

°F

Wood Buffalo temperature yesterday

Maximum temperature yesterday: 66 °F (at 3:00 PM)
Minimum temperature yesterday: 31 °F (at 6:00 AM)
Average temperature yesterday: 50 °F

Past Weeks' High & Low Weather Summary

 TemperatureHumidityPressure
High70 °F (Apr 28, 11:00 AM)100% (Apr 15, 4:00 AM)30.26 "Hg (Apr 15, 4:00 AM)
Low20 °F (Apr 26, 5:00 AM)14% (Apr 13, 5:00 PM)29.71 "Hg (Apr 13, 11:00 AM)
Average43 °F49%29.96 "Hg
* Reported Apr 13 11:00 AM — Apr 28 11:00 AM, Wood Buffalo, Weather by CustomWeather, © 2015

Note: Actual official high and low records may vary slightly from our data, if they occured in-between our weather recording intervals... More about our weather records

Advertising

Wood Buffalo weather history for previous 24 hours

 ConditionsComfort  
Time TempWeatherWind HumidityBarometerVisibility
11:00 AM
Tue, Apr 28
70 °FMild.10 mph21%29.84 "HgN/A
10:00 AM67 °FMild.12 mph24%29.85 "HgN/A
9:00 AM56 °FRefreshingly cool.6 mph39%29.89 "HgN/A
8:00 AM49 °FCool.5 mph51%29.92 "HgN/A
7:00 AM42 °FQuite cool.3 mph60%29.95 "HgN/A
6:00 AM35 °FChilly.2 mph73%29.95 "HgN/A
5:00 AM34 °FChilly.No wind77%29.96 "HgN/A
4:00 AM40 °FQuite cool.1 mph69%29.95 "HgN/A
3:00 AM45 °FCool.2 mph54%29.94 "HgN/A
2:00 AM42 °FQuite cool.1 mph60%29.94 "HgN/A
1:00 AM43 °FQuite cool.8 mph55%29.94 "HgN/A
12:00 AM46 °FCool.8 mph51%29.94 "HgN/A
11:00 PM
Mon, Apr 27
47 °FCool.9 mph48%29.94 "HgN/A
10:00 PM49 °FCool.6 mph42%29.94 "HgN/A
9:00 PM57 °FRefreshingly cool.7 mph30%29.93 "HgN/A
8:00 PM63 °FMild.10 mph24%29.93 "HgN/A
7:00 PM64 °FMild.9 mph26%29.93 "HgN/A
6:00 PM64 °FMild.13 mph24%29.93 "HgN/A
5:00 PM65 °FMild.14 mph25%29.95 "HgN/A
4:00 PM65 °FMild.12 mph24%29.95 "HgN/A
3:00 PM66 °FMild.12 mph23%29.95 "HgN/A
2:00 PM64 °FMild.12 mph24%29.97 "HgN/A
1:00 PM64 °FMild.16 mph25%29.98 "HgN/A
12:00 PM63 °FMild.15 mph23%29.98 "HgN/A
Weather by CustomWeather, © 2015

See weather overviewHow to use our weather pages